User: anonymous   Login
Location: Unspecified
(44.0704°N, 88.6889°W)
Time: 08:44:57
(UTC+02:00)
Language:

Okean 3 - Orbit

View from above orbital plane
View from above orbital plane
View from above satellite
View from above satellite

Ground track
Ground track

The orbit data is extracted from the following two-line orbital elements,

1 21397U 91039A   19286.45155340  .00000231  00000-0  19759-4 0  9998
2 21397  82.5232  52.4080 0016339 280.3137  79.6241 14.92843552536322
Epoch (UTC): 13 October 2019 10:50:14
Eccentricity: 0.0016339
inclination: 82.5232°
perigee height: 577 km
apogee height: 600 km
right ascension of ascending node: 52.4080°
argument of perigee: 280.3137°
revolutions per day: 14.92843552
mean anomaly at epoch: 79.6241°
orbit number at epoch: 53632

The dashed part of the orbit path shows where the satellite is in the earth's shadow,  

DLR